Probability
0 0 0 0 0 0 0 0 0 0 0 0 0 0 0 0 0 0 0 0 0 0 0 0 0 0 0 0 0 0 0 0 0 0 0 0 0 0 0 0 0 0 0
0 0 0 0 0 0 0 0 0 0 0 0 0 0 0 0 0 0 0 0 0 0 0 0 0 0 0 0 0 0 0 0 0 0 0 0 0 0 0 0 0 0 0
0 0 0 0 0 0 0 0 0 0 0 0 0 0 0 0 0 0 0 0 0 0 0 0 0 0 0 0 0 0 0 0 0 0 0 0 0 0 0 0 0 0 0
0 0 0 0 0 0 0 0 0 0 0 0 0 0 0 0 0 0 0 0 0 0 0 0 0 0 0 0 0 0 0 0 0 0 0 0 0 0 0 0 0 0 0
0 0 0 0 0 0 0 0 0 0 0 0 0 0 0 0 0 0 0 0 0 0 0 0 0 0 0 0 0 0 0 0 0 0 0 0 0 0 0 0 0 0 0
0 0 0 0 0 0 0 0 0 0 0 0 0 0 0 0 0 0 0 0 0 0 0 0 0 0 0 0 0 0 0 0 0 0 0 0 0 0 0 0 0 0 0
0 0 0 0 0 0 0 0 0 0 0 0 0 0 0 0 0 0 0 0 0 0 0 0 0 0 0 0 0 0 0 0 0 0 0 0 0 0 0 0 0 0 0
0 0 0 0 0 0 0 0 0 0 0 0 0 0 0 0 0 0 0 0 0 0 0 0 0 0 0 0 0 0 0 0 0 0 0 0 0 0 0 0 0 0 0
0 0 0 0 0 0 0 0 0 0 0 0 0 0 0 0 0 0 0 0 0 0 0 0 0 0 0 0 0 0 0 0 0 0 0 0 0 0 0 0 0 0 0
0 0 0 0 0 0 0 0 0 0 0 0 0 0 0 0 0 0 0 0 0 0 0 0 0 0 0 0 0 0 0 0 0 0 0 0 0 0 0 0 0 0 0
0 0 0 0 0 0 0 0 0 0 0 0 0 0 0 0 0 0 0 0 0 0 0 0 0 0 0 0 0 0 0 0 0 0 0 0 0 0 0 0 0 0 0
0 0 0 0 0 0 0 0 0 0 0 0 0 0 0 0 0 0 0 0 0 0 0 0 0 0 0 0 0 0 0 0 0 0 0 0 0 0 0 0 0 0 0
0 0 0 0 0 0 0 0 0 0 0 0 0 0 0 0 0 0 0 0 0 0 0 0 0 0 0 0 0 0 0 0 0 0 0 0 0 0 0 0 0 0 0
0 0 0 0 0 0 0 0 0 0 0 0 0 0 0 0 0 0 0 0 0 0 0 0 0 0 0 0 0 0 0 0 0 0 0 0 0 0 0 0 0 0 0
0 0 0 0 0 0 0 0 0 0 0 0 0 0 0 0 0 0 0 0 0 0 0 0 0 0 0 0 0 0 0 0 0 0 0 0 0 0 0 0 0 0 0
0 0 0 0 0 0 0 0 0 0 0 0 0 0 0 0 0 0 0 0 0 0 0 0 0 0 0 0 0 0 0 0 0 0 0 0 0 0 0 0 0 0 0
0 0 0 0 0 0 0 0 0 0 0 0 0 0 0 0 0 0 0 0 0 0 0 0 0 0 0 0 0 0 0 0 0 0 0 0 0 0 0 0 0 0 0
0 0 0 0 0 0 0 0 0 0 0 0 0 0 0 0 0 0 0 0 0 0 0 0 0 0 0 0 0 0 0 0 0 0 0 0 0 0 0 0 0 0 0
0 0 0 0 0 0 0 0 0 0 0 0 0 0 0 0 0 0 0 0 0 0 0 0 0 0 0 0 0 0 0 0 0 0 0 0 0 0 0 0 0 0 0
0 0 0 0 0 0 0 0 0 0 0 0 0 0 0 0 0 0 0 0 0 0 0 0 0 0 0 0 0 0 0 0 0 0 0 0 0 0 0 0 0 0 0
0 0 0 0 0 0 0 0 0 0 0 0 0 0 0 0 0 0 0 0 0 0 0 0 0 0 0 0 0 0 0 0 0 0 0 0 0 0 0 0 0 0 0
0 0 0 0 0 0 0 0 0 0 0 0 0 0 0 0 0 0 0 0 0 0 0 0 0 0 0 0 0 0 0 0 0 0 0 0 0 0 0 0 0 0 0
0 0 0 0 0 0 0 0 0 0 0 0 0 0 0 0 0 0 0 0 0 0 0 0 0 0 0 0 0 0 0 0 0 0 0 0 0 0 0 0 0 0 0
0 0 0 0 0 0 0 0 0 0 0 0 0 0 0 0 0 0 0 0 0 0 0 0 0 0 0 0 0 0 0 0 0 0 0 0 0 0 0 0 0 0 0
0 0 0 0 0 0 0 0 0 0 0 0 0 0 0 0 0 0 0 0 0 0 0 0 0 0 0 0 0 0 0 0 0 0 0 0 0 0 0 0 0 0 0
0 0 0 0 0 0 0 0 0 0 0 0 0 0 0 0 0 0 0 0 0 0 0 0 0 0 0 0 0 0 0 0 0 0 0 0 0 0 0 0 0 0 0
Height
5812 5809 5806 5803 5800 5797 5794 5791 5788 5784 5781 5778 5775 5773 5770 5767 5764 5762 5759 5757 5755 5754 5752 5751 5751 5751 5751 5752 5754 5756 5758 5761 5764 5766 5768 5772 5776 5781 5785 5789 5793 5797 5801
5812 5809 5806 5803 5800 5797 5794 5791 5788 5785 5781 5778 5775 5772 5769 5766 5763 5760 5758 5755 5753 5751 5749 5747 5746 5745 5745 5745 5746 5748 5750 5752 5755 5757 5759 5762 5766 5770 5774 5778 5782 5786 5790
5811 5808 5805 5802 5799 5796 5793 5790 5787 5784 5781 5778 5775 5772 5769 5766 5762 5759 5756 5754 5751 5749 5746 5744 5742 5741 5740 5740 5740 5741 5742 5744 5746 5748 5750 5753 5756 5759 5763 5767 5771 5775 5779
5810 5807 5804 5801 5799 5796 5793 5790 5787 5784 5781 5778 5774 5771 5768 5765 5761 5758 5755 5753 5750 5747 5745 5742 5740 5738 5737 5736 5735 5735 5736 5738 5739 5741 5742 5744 5747 5749 5752 5756 5760 5763 5767
5808 5806 5803 5800 5797 5794 5791 5788 5785 5783 5780 5776 5773 5770 5767 5764 5761 5757 5754 5752 5749 5746 5743 5741 5738 5736 5734 5733 5732 5731 5731 5732 5733 5734 5735 5736 5738 5740 5742 5745 5748 5751 5756
5806 5804 5801 5798 5796 5793 5790 5787 5784 5781 5778 5775 5772 5769 5766 5763 5759 5756 5753 5750 5748 5745 5742 5739 5737 5735 5732 5731 5729 5728 5728 5727 5727 5728 5728 5729 5730 5731 5732 5734 5737 5741 5746
5804 5802 5799 5797 5794 5791 5788 5785 5782 5779 5776 5773 5770 5767 5764 5761 5758 5755 5752 5749 5746 5744 5741 5738 5736 5733 5731 5729 5727 5725 5724 5723 5723 5723 5722 5722 5723 5724 5725 5726 5728 5730 5734
5802 5799 5797 5794 5791 5789 5786 5782 5779 5776 5773 5770 5767 5764 5761 5758 5755 5753 5750 5747 5745 5742 5740 5737 5734 5732 5729 5727 5725 5723 5721 5720 5719 5718 5718 5718 5718 5717 5718 5719 5719 5722 5724
5799 5796 5794 5792 5789 5786 5783 5780 5776 5773 5770 5766 5763 5761 5758 5755 5753 5750 5748 5745 5743 5740 5738 5735 5733 5730 5728 5725 5723 5721 5719 5717 5716 5714 5714 5713 5712 5712 5712 5712 5713 5714 5716
5795 5793 5791 5788 5786 5783 5780 5776 5773 5770 5766 5763 5760 5757 5755 5752 5750 5747 5745 5742 5740 5738 5735 5733 5731 5728 5726 5724 5721 5719 5717 5715 5713 5711 5710 5709 5708 5707 5706 5706 5706 5706 5708
5791 5789 5787 5785 5782 5779 5776 5773 5770 5766 5763 5760 5757 5754 5752 5749 5746 5744 5741 5739 5737 5734 5732 5730 5728 5726 5724 5721 5719 5717 5715 5712 5710 5708 5707 5705 5704 5703 5702 5701 5700 5700 5701
5787 5785 5783 5781 5778 5775 5772 5769 5766 5763 5759 5756 5753 5751 5748 5745 5743 5740 5738 5735 5733 5731 5729 5727 5725 5723 5720 5718 5716 5714 5711 5709 5707 5705 5703 5702 5700 5699 5697 5696 5695 5694 5694
5782 5780 5778 5776 5774 5771 5768 5765 5761 5758 5755 5752 5749 5746 5744 5741 5739 5736 5734 5732 5729 5727 5725 5723 5721 5719 5716 5714 5712 5710 5708 5706 5703 5701 5699 5698 5696 5694 5692 5691 5690 5689 5688
5776 5775 5773 5771 5768 5766 5763 5760 5757 5754 5751 5747 5744 5742 5739 5736 5734 5732 5729 5727 5725 5723 5720 5718 5716 5714 5712 5710 5708 5706 5703 5701 5699 5697 5695 5693 5691 5689 5688 5686 5685 5683 5682
5770 5768 5767 5765 5763 5760 5758 5755 5752 5749 5745 5742 5739 5736 5733 5731 5728 5726 5724 5722 5719 5717 5715 5713 5711 5709 5707 5705 5702 5700 5698 5696 5694 5692 5690 5688 5686 5684 5682 5680 5679 5677 5676
5763 5762 5760 5759 5757 5754 5752 5749 5746 5743 5740 5737 5733 5730 5727 5725 5722 5720 5718 5715 5713 5711 5709 5707 5705 5703 5701 5699 5697 5695 5693 5691 5689 5686 5684 5682 5680 5678 5676 5674 5672 5671 5669
5755 5754 5753 5751 5749 5747 5745 5742 5739 5737 5733 5730 5727 5724 5721 5718 5716 5713 5711 5709 5707 5705 5703 5700 5698 5696 5694 5692 5690 5688 5686 5684 5682 5680 5678 5676 5674 5672 5670 5668 5665 5664 5662
5747 5746 5745 5744 5742 5740 5737 5734 5732 5729 5726 5723 5720 5717 5714 5711 5708 5706 5704 5702 5699 5697 5695 5693 5691 5689 5687 5685 5683 5681 5679 5676 5674 5672 5670 5668 5666 5664 5662 5660 5658 5656 5655
5738 5738 5737 5735 5734 5731 5729 5726 5724 5721 5718 5714 5712 5709 5706 5703 5700 5698 5695 5693 5691 5689 5687 5685 5683 5681 5679 5677 5674 5672 5670 5668 5666 5664 5662 5659 5657 5655 5653 5652 5650 5648 5646
5729 5728 5727 5726 5724 5722 5720 5718 5715 5712 5709 5706 5703 5700 5697 5694 5691 5689 5686 5684 5682 5680 5678 5676 5673 5671 5669 5667 5665 5663 5661 5659 5656 5654 5652 5650 5647 5645 5644 5642 5640 5638 5636
5719 5718 5717 5716 5714 5712 5710 5708 5705 5702 5699 5696 5693 5690 5687 5684 5681 5679 5676 5674 5672 5670 5668 5665 5663 5661 5659 5656 5654 5652 5650 5647 5645 5643 5641 5638 5636 5634 5632 5630 5628 5627 5625
5707 5707 5706 5705 5703 5701 5699 5697 5694 5691 5688 5685 5682 5679 5676 5673 5670 5668 5665 5663 5661 5659 5656 5654 5652 5649 5647 5645 5642 5640 5637 5635 5633 5630 5628 5626 5623 5621 5619 5617 5615 5614 5612
5695 5695 5694 5693 5691 5689 5687 5685 5682 5679 5677 5673 5670 5667 5664 5661 5659 5656 5654 5651 5649 5647 5644 5642 5640 5637 5634 5632 5629 5626 5624 5621 5618 5616 5613 5611 5608 5606 5604 5602 5600 5598 5597
5683 5682 5681 5680 5679 5677 5675 5672 5670 5667 5664 5661 5658 5655 5652 5649 5646 5644 5641 5639 5637 5634 5632 5629 5626 5624 5621 5618 5614 5611 5608 5605 5602 5599 5597 5594 5592 5589 5587 5584 5582 5581 5579
5669 5669 5668 5667 5665 5664 5662 5659 5656 5654 5651 5648 5644 5641 5638 5635 5633 5630 5628 5626 5623 5621 5618 5615 5612 5609 5605 5602 5598 5595 5591 5588 5584 5581 5578 5575 5573 5570 5567 5564 5562 5560 5558
5655 5655 5654 5653 5652 5650 5648 5645 5643 5640 5637 5634 5631 5628 5625 5622 5620 5617 5614 5612 5609 5606 5603 5600 5596 5593 5589 5585 5581 5577 5573 5569 5565 5561 5557 5554 5551 5547 5544 5541 5538 5536 5534
Wind_Speed
17 17 16 17 17 17 17 17 17 17 16 15 15 15 14 14 13 13 12 12 11 11 11 12 14 16 18 21 25 27 29 32 35 37 38 41 42 44 45 46 47 48 48
16 16 16 16 16 16 16 16 16 16 16 16 16 15 15 15 14 14 13 13 12 12 12 11 12 13 16 18 21 24 26 29 32 35 37 39 41 43 45 46 46 47 49
15 16 16 16 16 16 16 16 16 16 16 16 16 15 15 15 15 14 14 13 13 13 12 11 11 12 13 15 17 20 23 25 28 32 35 38 40 41 44 46 46 46 47
15 15 16 16 16 16 16 16 16 16 16 16 16 16 16 16 15 15 14 13 13 13 13 12 11 10 10 12 13 16 18 21 24 28 31 34 37 39 41 44 45 47 47
15 15 16 16 16 16 16 16 16 16 16 16 16 16 15 15 15 15 15 14 13 13 13 12 12 11 10 10 11 12 14 17 20 23 26 29 32 35 38 41 43 45 46
14 15 16 17 17 17 17 17 17 17 17 16 16 16 15 15 15 15 15 14 14 14 13 13 12 12 11 10 10 11 12 14 16 18 21 25 27 29 32 35 38 42 44
14 15 16 17 17 18 18 18 19 18 17 17 16 16 16 15 15 15 14 14 14 14 13 13 13 12 12 11 10 10 11 12 14 15 17 20 22 24 26 29 33 37 40
14 15 16 17 18 19 19 19 20 19 19 17 16 16 16 15 15 15 14 14 14 14 13 13 13 13 13 12 11 11 11 11 12 13 15 18 20 22 24 26 29 32 35
15 16 17 18 19 20 20 20 21 20 19 18 17 16 16 15 15 15 15 14 14 14 13 13 13 13 13 13 12 12 12 12 12 13 13 15 17 19 20 23 25 28 30
15 16 17 18 20 21 21 21 21 21 20 19 18 17 17 16 16 16 15 15 15 14 14 14 13 13 13 13 13 13 12 12 13 13 13 14 15 16 17 19 21 24 27
16 17 18 19 20 21 22 22 22 21 21 19 19 19 18 18 17 17 16 16 16 16 15 14 14 14 14 14 14 14 14 13 13 13 13 13 14 15 16 18 19 21 24
17 18 18 20 21 22 22 22 22 22 21 20 20 19 19 19 18 18 18 17 17 17 17 16 16 15 15 15 15 15 14 14 14 14 14 14 15 16 16 17 18 20 22
18 18 19 20 21 22 23 23 23 23 22 22 21 21 21 20 19 19 19 19 18 18 18 17 17 17 16 16 16 16 16 16 15 15 15 15 15 16 17 17 18 19 20
19 20 20 21 22 23 24 24 24 24 23 23 23 23 22 22 21 20 20 20 20 19 19 18 18 18 18 18 18 18 17 17 17 17 17 17 17 17 17 17 18 19 20
21 21 21 22 23 24 25 25 25 25 25 25 24 24 24 23 23 22 22 21 21 20 20 20 20 20 20 20 20 19 19 19 19 19 19 19 19 19 19 19 19 20 21
23 23 23 24 25 26 26 27 26 26 26 26 26 25 25 25 24 24 23 23 22 22 22 22 21 21 21 22 22 21 21 21 21 21 21 21 21 21 21 21 21 21 21
25 25 26 26 27 27 28 28 29 28 28 27 27 26 26 26 26 25 25 24 24 24 24 24 24 23 23 23 24 24 24 24 23 23 23 23 23 23 23 23 24 23 23
27 27 28 28 28 29 30 30 31 31 30 30 29 28 28 28 27 27 26 26 26 26 26 26 26 26 26 26 26 26 26 26 27 26 26 26 26 26 26 26 26 26 26
30 30 30 30 31 31 32 32 33 33 33 32 32 31 30 30 29 28 28 28 28 28 28 28 28 29 29 29 29 29 29 29 30 30 30 30 30 29 29 29 29 29 28
32 32 33 33 33 34 34 34 35 35 35 34 34 34 33 32 31 31 31 30 30 31 31 31 31 31 32 32 32 32 32 33 33 33 33 33 33 33 33 33 33 33 32
35 35 35 35 36 36 36 37 37 37 37 37 36 36 35 34 34 34 33 33 33 33 33 34 34 34 35 35 35 36 36 36 36 37 37 37 37 37 37 37 37 37 37
38 38 38 38 38 39 39 39 39 39 39 39 39 38 37 37 37 36 36 36 36 36 36 36 37 37 38 38 39 39 40 40 40 41 41 41 41 42 42 42 42 42 41
41 41 41 41 41 41 42 42 42 42 42 42 41 41 40 39 39 38 38 38 38 38 39 39 40 40 41 42 43 43 44 44 45 45 45 46 46 47 47 47 47 47 47
44 43 43 43 44 44 45 45 45 45 44 44 43 43 42 41 40 40 40 40 40 41 42 42 43 44 45 45 46 47 48 48 49 50 50 50 51 52 52 53 53 53 53
47 46 46 47 47 47 47 47 47 47 46 45 44 44 43 42 41 41 41 41 42 43 44 45 46 47 47 48 49 50 51 52 53 54 55 55 56 57 57 58 59 59 59
49 49 49 49 49 49 49 49 48 47 46 46 45 44 43 42 41 41 42 43 43 44 46 47 48 49 50 51 52 53 54 56 57 58 59 60 61 62 62 63 64 64 64
Wind_Direction
358 0 2 3 4 5 5 6 7 8 8 7 5 4 2 360 356 352 346 339 332 325 310 293 281 273 266 258 252 248 246 244 242 242 241 240 240 240 239 238 238 239 240
358 359 0 0 1 2 4 5 5 6 6 6 5 3 1 359 357 355 352 348 342 336 328 314 296 283 275 266 258 252 249 247 245 244 244 243 242 240 240 240 240 240 240
356 358 359 359 357 358 360 2 2 2 2 2 2 2 0 358 357 356 354 353 351 346 339 330 315 297 284 274 267 259 255 252 249 248 247 246 245 244 242 241 241 240 240
352 354 356 356 356 355 355 357 357 356 355 355 356 357 357 357 356 355 355 354 353 351 348 343 334 320 302 288 278 269 262 259 255 254 253 251 250 249 246 244 243 241 241
348 351 353 354 354 355 354 352 352 351 349 349 349 350 352 353 354 354 353 352 351 350 349 348 345 337 323 307 292 281 273 266 262 260 257 256 254 253 251 248 246 245 244
345 348 350 351 351 351 351 349 346 345 344 343 343 343 344 346 348 350 351 351 350 350 349 346 342 340 333 322 307 294 284 276 269 266 261 258 259 257 255 253 251 248 247
341 345 348 350 350 349 347 346 344 340 338 337 336 336 337 338 339 342 345 347 347 347 349 348 347 344 339 331 320 307 297 287 278 272 265 260 261 261 258 256 254 252 250
335 340 344 346 347 346 345 344 342 340 336 334 332 331 331 332 332 333 335 338 340 341 343 344 344 343 341 336 328 322 312 302 290 280 272 266 264 263 261 259 256 253 252
328 334 338 340 341 342 342 341 340 339 337 333 330 328 327 326 327 326 328 330 332 333 334 336 338 339 337 336 334 329 322 314 306 293 284 277 273 271 267 263 259 256 252
321 327 331 334 337 338 338 338 338 337 336 333 329 327 325 323 322 321 320 322 323 325 326 328 329 331 332 332 331 329 325 319 315 308 295 288 284 280 275 270 266 261 256
313 319 324 329 332 334 335 336 336 335 333 331 328 326 324 322 319 317 317 316 316 317 319 320 321 323 324 325 325 323 321 317 314 312 307 298 293 290 284 277 271 266 261
306 312 318 324 329 331 332 332 333 332 331 329 327 323 320 319 317 315 315 314 314 314 314 314 314 314 315 316 317 318 318 316 312 309 307 302 297 293 290 285 280 273 268
299 306 313 319 324 327 328 329 329 328 327 326 324 321 318 315 314 313 312 312 312 311 311 311 311 310 310 310 309 310 310 311 308 306 304 301 299 297 294 290 285 280 276
294 301 308 314 319 322 324 325 326 325 324 322 321 318 315 313 311 311 310 309 308 308 307 306 306 306 306 306 306 306 306 306 306 304 302 301 298 296 295 292 288 286 281
290 296 302 308 313 316 319 321 323 323 322 321 319 316 313 310 309 309 307 306 305 304 303 302 301 301 301 302 303 303 303 301 301 301 300 299 298 296 294 292 290 288 286
286 292 297 302 307 311 314 316 318 319 319 318 317 314 311 309 307 305 304 302 301 300 299 299 298 298 299 299 300 300 300 298 297 297 296 296 295 294 293 292 290 289 287
284 288 293 298 302 306 309 312 314 314 314 314 313 311 309 306 304 302 300 299 298 297 296 296 296 296 296 296 296 296 297 297 296 294 294 293 293 292 292 291 291 290 286
281 285 290 294 298 302 305 308 310 311 311 311 310 308 306 304 301 299 298 296 295 294 294 294 294 293 293 293 292 292 292 293 293 292 292 291 291 290 290 290 290 289 287
279 283 287 290 294 298 302 304 307 307 307 308 307 306 304 302 299 296 294 293 292 291 292 292 292 291 291 291 290 290 290 290 290 290 290 290 289 289 289 288 288 287 285
278 282 285 288 292 295 298 301 303 304 304 304 304 303 301 299 297 294 292 291 290 289 289 290 290 290 290 290 289 289 289 289 288 288 288 288 287 287 287 287 286 286 284
277 281 284 287 290 293 296 298 300 301 302 302 301 300 298 296 294 292 291 289 288 288 289 289 289 289 289 289 289 289 288 288 287 287 287 286 286 285 285 285 285 284 283
276 280 283 285 288 291 294 296 298 299 299 299 299 297 296 294 292 290 289 288 287 287 288 288 289 289 289 289 289 288 288 287 287 286 286 285 284 284 283 283 282 282 281
276 279 281 284 287 289 292 294 296 297 297 297 297 296 294 292 290 289 287 286 285 285 286 287 288 289 289 289 288 288 287 287 286 285 285 285 284 283 282 281 280 280 279
275 278 280 283 285 288 290 293 294 295 296 296 296 295 294 292 290 288 286 285 284 285 286 287 288 289 289 289 288 288 288 287 286 286 285 284 284 283 282 281 280 279 277
274 277 279 282 285 287 289 291 293 294 295 295 295 294 293 291 289 288 286 285 285 286 287 288 289 290 290 290 290 289 289 288 287 286 285 285 284 283 282 281 279 278 277
274 276 279 281 284 286 288 290 291 292 293 294 294 294 292 291 289 288 287 287 287 288 289 290 290 291 292 292 292 291 291 290 289 288 287 287 286 285 283 282 280 278 277